Charlottesville, VA

11:26 PM EDT on July 24, 2017 (GMT -0400)
Charlottesville-Albemarle

Weather History for KCHO - November, 2012

Change the Weather History Date:

Saturday, November 3, 2012

  Actual Average Record
Temperature  
Mean Temperature 46 °F 51 °F  
Max Temperature 52 °F 62 °F 85 °F (1971)
Min Temperature 40 °F 40 °F 26 °F (2006)
Degree Days  
Heating Degree Days 19 14  
Month to date heating degree days 56 42  
Since 1 July heating degree days 336 391  
Cooling Degree Days 0 0  
Month to date cooling degree days 0 0  
Year to date cooling degree days 1604 1034  
Moisture  
Dew Point 29 °F    
Average Humidity 53    
Maximum Humidity 64    
Minimum Humidity 41    
Precipitation  
Precipitation 0.00 in 0.14 in 1.59 in (1992)
Month to date precipitation 0.00 0.39  
Year to date precipitation 33.25 36.12  
Sea Level Pressure  
Sea Level Pressure 30.04 in    
Wind  
Wind Speed 6 mph (NNW)    
Max Wind Speed 15 mph    
Max Gust Speed 21 mph    
Visibility 10 miles    
Events      
T = Trace of Precipitation, MM = Missing Value Source: NWS Daily Summary

Daily Weather History Graph

Daily Weather History Graph

Search for Another Location

Airport or City:

Trip Planner

Search our weather history database for the weather conditions in past years. The results will help you decide how hot, cold, wet, or windy it might be!

Date:

Astronomy

Nov. 03, 2012 Rise Set
Actual Time 7:42 AM EDT 6:11 PM EDT
Civil Twilight 7:14 AM EDT 6:39 PM EDT
Nautical Twilight 6:43 AM EDT 7:10 PM EDT
Astronomical Twilight 6:12 AM EDT 7:41 PM EDT
Moon 9:52 PM EDT (11/3) 11:43 AM EDT (11/3)
Length of Visible Light 11h 24m
Length of Day
10h 29m
Waning Gibbous, 80% of the Moon is Illuminated
Nov 3
Waning Gibbous
Nov 6
Last Quarter
Nov 13
New
Nov 20
First Quarter
Nov 28
Full

Hourly Weather History & Observations

Time (EDT) Temp. Windchill Dew Point Humidity Pressure Visibility Wind Dir Wind Speed Gust Speed Precip Events Conditions
12:53 AM 42.1 °F 40.2 °F 27.0 °F 55% 29.96 in 10.0 mi WNW 3.5 mph - N/A   Mostly Cloudy
1:53 AM 42.1 °F - 27.0 °F 55% 29.96 in 10.0 mi Calm Calm - N/A   Mostly Cloudy
2:53 AM 41.0 °F - 28.0 °F 60% 29.96 in 10.0 mi Calm Calm - N/A   Overcast
3:53 AM 39.9 °F - 28.9 °F 65% 29.96 in 10.0 mi Calm Calm - N/A   Overcast
4:53 AM 42.1 °F - 28.9 °F 60% 29.98 in 10.0 mi Calm Calm - N/A   Overcast
5:53 AM 42.1 °F 37.1 °F 30.9 °F 65% 30.00 in 10.0 mi North 8.1 mph - N/A   Overcast
6:53 AM 42.1 °F 35.7 °F 30.0 °F 62% 30.03 in 10.0 mi North 11.5 mph - N/A   Overcast
7:53 AM 42.1 °F 35.7 °F 28.9 °F 60% 30.05 in 10.0 mi North 11.5 mph - N/A   Overcast
8:53 AM 43.0 °F 37.2 °F 28.0 °F 56% 30.06 in 10.0 mi North 10.4 mph - N/A   Overcast
9:53 AM 45.0 °F 39.3 °F 28.0 °F 52% 30.07 in 10.0 mi North 11.5 mph - N/A   Overcast
10:53 AM 46.0 °F 43.1 °F 28.0 °F 50% 30.07 in 10.0 mi Variable 5.8 mph - N/A   Overcast
11:53 AM 46.9 °F - 28.0 °F 48% 30.08 in 10.0 mi WNW 12.7 mph 19.6 mph N/A   Scattered Clouds
12:53 PM 48.9 °F - 28.0 °F 44% 30.06 in 10.0 mi NNW 11.5 mph 18.4 mph N/A   Clear
1:53 PM 50.0 °F - 28.0 °F 43% 30.05 in 10.0 mi Variable 6.9 mph - N/A   Mostly Cloudy
2:53 PM 50.0 °F - 28.9 °F 44% 30.04 in 10.0 mi North 10.4 mph - N/A   Scattered Clouds
3:53 PM 51.1 °F - 28.9 °F 43% 30.04 in 10.0 mi NW 9.2 mph - N/A   Clear
4:53 PM 51.1 °F - 28.9 °F 43% 30.03 in 10.0 mi NNW 9.2 mph - N/A   Clear
5:53 PM 46.9 °F - 28.9 °F 50% 30.05 in 10.0 mi North 5.8 mph - N/A   Clear
6:53 PM 44.1 °F 41.5 °F 28.0 °F 53% 30.05 in 10.0 mi North 4.6 mph - N/A   Clear
7:53 PM 43.0 °F 41.3 °F 28.0 °F 56% 30.07 in 10.0 mi Variable 3.5 mph - N/A   Clear
8:53 PM 43.0 °F 41.3 °F 28.9 °F 58% 30.08 in 10.0 mi NNE 3.5 mph - N/A   Overcast
9:53 PM 44.1 °F 41.5 °F 28.9 °F 55% 30.09 in 10.0 mi NNW 4.6 mph - N/A   Overcast
10:53 PM 44.1 °F - 28.9 °F 55% 30.09 in 10.0 mi Calm Calm - N/A   Overcast
11:53 PM 44.1 °F - 30.0 °F 58% 30.09 in 10.0 mi Calm Calm - N/A   Overcast